EHI
0 0 0 0 0 0 0 0 0 0 0 0 0 0 0 0 0 0 0 0 0 0 0 0 0 0 0 0 0 0 0 0 0 0 0 0 0 0
0 0 0 0 0 0 0 0 0 0 0 0 0 0 0 0 0 0 0 0 0 0 0 0 0 0 0 0 0 0 0 0 0 0 0 0 0 0
0 0 0 0 0 0 0 0 0 0 0 0 0 0 0 0 0 0 0 0 0 0 0 0 0 0 0 0 0 0 0 0 0 0 0 0 0 0
0 0 0 0 0 0 0 0 0 0 0 0 0 0 0 0 0 0 0 0 0 0 0 0 0 0 0 0 0 0 0 0 0 0 0 0 0 0
0 0 0 0 0 0 0 0 0 0 0 0 0 0 0 0 0 0 0 0 0 0 0 0 0 0 0 0 0 0 0 0 0 0 0 0 0 0
0 0 0 0 0 0 0 0 0 0 0 0 0 0 0 0 0 0 0 0 0 0 0 0 0 0 0 0 0 0 0 0 0 0 0 0 0 0
0 0 0 0 0 0 0 0 0 0 0 0 0 0 0 0 0 0 0 0 0 0 0 0 0 0 0 0 0 0 0 0 0 0 0 0 0 0
0 0 0 0 0 0 0 0 0 0 0 0 0 0 0 0 0 0 0 0 0 0 0 0 0 0 0 0 0 0 0 0 0 0 0 0 0 0
0 0 0 0 0 0 0 0 0 0 0 0 0 0 0 0 0 0 0 0 0 0 0 0 0 0 0 0 0 0 0 0 0 0 0 0 0 0
0 0 0 0 0 0 0 0 0 0 0 0 0 0 0 0 0 0 0 0 0 0 0 0 0 0 0 0 0 0 0 0 0 0 0 0 0 0
0 0 0 0 0 0 0 0 0 0 0 0 0 0 0 0 0 0 0 0 0 0 0 0 0 0 0 0 0 0 0 0 0 0 0 0 0 0
0 0 0 0 0 0 0 0 0 0 0 0 0 0 0 0 0 0 0 0 0 0 0 0 0 0 0 0 0 0 0 0 0 0 0 0 0 0
0 0 0 0 0 0 0 0 0 0 0 0 0 0 0 0 0 0 0 0 0 0 0 0 0 0 0 0 0 0 0 0 0 0 0 0 0 0
0 0 0 0 0 0 0 0 0 0 0 0 0 0 0 0 0 0 0 0 0 0 0 0 0 0 0 0 0 0 0 0 0 0 0 0 0 0
0 0 0 0 0 0 0 0 0 0 0 0 0 0 0 0 0 0 0 0 0 0 0 0 0 0 0 0 0 0 0 0 0 0 0 0 0 0
0 0 0 0 0 0 0 0 0 0 0 0 0 0 0 0 0 0 0 0 0 0 0 0 0 0 0 0 0 0 0 0 0 0 0 0 0 0
0 0 0 0 0 0 0 0 0 0 0 0 0 0 0 0 0 0 0 0 0 0 0 0 0 0 0 0 0 0 0 0 0 0 0 0 0 0
0 0 0 0 0 0 0 0 0 0 0 0 0 0 0 0 0 0 0 0 0 0 0 0 0 0 0 0 0 0 0 0 0 0 0 0 0 0
0 0 0 0 0 0 0 0 0 0 0 0 0 0 0 0 0 0 0 0 0 0 0 0 0 0 0 0 0 0 0 0 0 0 0 0 0 0
0 0 0 0 0 0 0 0 0 0 0 0 0 0 0 0 0 0 0 0 0 0 0 0 0 0 0 0 0 0 0 0 0 0 0 0 0 0
0 0 0 0 0 0 0 0 0 0 0 0 0 0 0 0 0 0 0 0 0 0 0 0 0 0 0 0 0 0 0 0 0 0 0 0 0 0
0 0 0 0 0 0 0 0 0 0 0 0 0 0 0 0 0 0 0 0 0 0 0 0 0 0 0 0 0 0 0 0 0 0 0 0 0 0
0 0 0 0 0 0 0 0 0 0 0 0 0 0 0 0 0 0 0 0 0 0 0 0 0 0 0 0 0 0 0 0 0 0 0 0 0 0
Wind_Speed
1 1 1 1 0 0 0 1 1 0 1 1 0 0 1 1 4 4 4 7 9 9 9 9 8 8 8 8 8 9 9 10 11 11 11 11 12 12
1 1 1 1 1 0 1 1 1 1 1 1 1 1 1 1 4 3 3 8 10 10 10 9 9 8 8 8 8 8 9 9 10 11 11 11 11 11
1 1 1 1 1 1 1 1 1 1 1 1 1 1 2 2 2 2 2 3 5 10 10 10 9 9 9 8 8 8 9 9 10 11 11 11 11 11
1 0 1 0 1 1 1 1 1 1 1 1 1 1 1 2 2 2 2 3 3 8 10 10 10 9 9 9 9 9 9 9 9 10 11 12 12 12
0 0 0 1 0 0 1 1 1 1 1 1 1 1 1 1 1 1 1 1 2 5 8 10 10 10 10 9 9 9 9 10 10 10 10 11 12 12
1 1 1 1 1 1 0 0 0 0 0 1 1 1 0 1 1 1 1 1 1 2 3 5 8 10 10 10 10 10 10 10 10 10 10 10 11 12
1 1 1 2 3 1 0 0 1 0 0 0 1 0 1 0 1 1 1 1 1 1 1 2 3 4 6 8 10 11 11 11 11 11 11 11 11 12
1 0 1 2 2 2 1 1 1 1 1 1 1 1 1 1 1 1 1 0 1 1 1 2 2 3 4 5 8 11 11 11 11 11 12 12 12 12
1 0 0 1 2 1 1 2 2 3 3 2 1 2 1 1 1 1 1 1 2 2 0 2 2 3 3 4 8 11 12 12 12 11 12 12 12 12
1 0 0 1 2 1 0 1 1 1 2 1 1 1 1 1 1 1 2 1 2 2 2 2 2 3 3 2 7 10 11 11 11 12 11 11 11 12
0 1 1 2 3 4 1 1 1 1 1 1 1 1 2 2 1 0 1 1 2 2 2 2 2 2 2 3 4 8 9 10 10 11 11 11 11 11
1 2 3 3 4 4 2 1 1 1 1 1 1 2 2 2 3 3 3 2 1 2 1 1 1 0 2 2 1 2 4 7 9 10 10 11 10 7
1 1 2 4 4 4 2 1 1 2 2 1 1 1 1 1 1 1 2 2 2 2 2 1 1 1 1 2 2 2 2 2 3 5 8 10 10 9
2 2 2 3 3 2 2 2 4 3 1 1 1 1 1 2 1 1 1 1 1 2 3 2 2 2 1 2 3 2 2 2 3 3 4 6 9 11
1 2 2 2 1 1 2 3 3 2 1 1 1 1 1 1 2 2 3 3 2 2 1 0 1 1 2 2 3 2 3 3 3 3 3 4 4 4
0 0 1 1 2 2 3 2 1 2 2 1 1 1 1 1 1 1 2 2 2 2 3 2 1 1 2 3 3 3 3 3 2 3 3 3 3 4
1 1 1 2 2 2 3 3 3 3 3 2 2 2 2 2 2 1 1 1 1 2 3 3 3 2 3 3 3 4 3 3 3 3 3 4 5 5
2 2 2 2 2 2 2 2 3 3 3 3 3 2 2 3 3 3 2 2 2 2 2 3 3 3 3 3 3 3 2 3 3 3 2 3 5 4
3 2 2 2 2 2 2 2 2 2 3 3 3 3 3 3 3 3 4 3 3 3 3 2 2 3 3 5 5 2 3 4 3 3 3 4 5 5
2 2 2 2 2 2 2 2 2 2 2 3 3 3 3 3 3 3 3 3 3 3 3 3 2 2 3 4 5 5 5 3 3 4 4 4 5 6
2 2 2 2 2 2 2 2 2 2 2 2 2 3 3 3 3 3 3 4 4 3 4 3 4 6 4 3 4 5 4 5 5 4 4 4 5 4
3 3 2 3 2 2 2 2 2 2 2 2 3 3 3 3 3 4 4 3 3 3 4 4 4 4 3 3 5 6 6 6 6 8 8 6 4 5
3 3 3 3 3 2 2 2 3 3 3 3 3 3 3 3 3 3 4 3 3 4 5 5 4 4 4 4 5 5 7 7 5 5 5 7 10 12
Wind_Direction
290 288 239 230 199 269 81 146 149 199 277 227 72 157 143 137 164 185 190 193 192 195 195 195 197 198 203 208 209 209 209 208 209 211 212 212 212 214
215 229 239 216 159 185 203 219 165 165 234 267 249 221 195 183 189 199 201 189 194 197 197 196 198 199 203 207 208 210 212 211 210 212 215 216 216 217
285 215 246 221 177 210 204 199 194 176 206 265 273 215 188 182 179 203 189 192 196 200 200 201 202 203 204 209 212 213 215 216 214 216 217 217 219 218
312 325 290 276 171 213 196 208 198 187 175 218 252 240 210 195 189 202 201 201 194 196 198 200 204 206 207 210 214 215 216 216 216 219 220 221 222 223
172 120 358 20 77 209 198 213 222 208 169 189 226 239 236 205 187 224 218 203 209 195 197 202 206 209 211 214 216 216 217 217 218 220 221 224 224 225
52 70 59 56 50 23 10 326 308 102 246 218 217 223 223 228 168 196 245 250 240 213 196 196 205 211 215 217 218 219 221 221 220 222 223 225 226 228
27 56 90 109 104 111 104 339 343 267 251 231 245 257 237 189 189 204 200 257 282 222 183 205 196 206 215 221 222 222 221 221 222 223 225 227 229 228
43 86 146 149 152 148 159 195 204 221 234 232 239 239 246 210 177 173 157 143 281 265 147 249 208 214 218 211 214 215 217 220 223 225 226 227 229 228
1 64 14 109 137 162 192 202 224 244 237 225 230 244 257 231 184 204 210 213 238 239 192 255 242 238 231 222 213 213 217 220 222 225 228 229 228 227
267 204 204 86 72 72 224 210 218 254 256 220 213 240 261 246 197 211 215 256 280 259 192 229 246 246 247 227 222 218 219 221 224 225 226 227 228 228
331 55 65 72 59 48 36 301 257 269 256 147 197 259 275 279 238 168 221 223 271 267 223 210 242 264 266 248 231 220 221 223 226 228 228 228 228 228
40 82 73 68 60 45 35 12 359 324 354 358 323 296 271 253 233 203 202 214 238 259 228 181 248 295 293 272 228 211 226 234 232 234 234 232 229 225
15 50 60 67 62 44 38 48 317 314 308 286 267 283 301 298 247 235 216 199 211 245 237 140 247 255 244 287 286 243 223 224 225 238 237 235 230 220
4 46 66 67 52 35 26 358 347 350 336 329 359 11 7 349 339 322 309 295 239 236 236 202 211 217 234 267 277 276 259 244 230 233 230 230 231 230
50 58 77 62 13 28 14 5 8 8 7 18 18 5 349 341 352 355 355 355 345 330 318 247 205 236 223 241 261 271 281 265 234 238 240 229 224 221
58 60 77 58 37 20 14 17 30 35 37 37 4 345 349 5 3 3 359 351 351 332 329 326 279 225 255 258 255 268 263 268 264 249 252 250 240 229
56 60 55 51 51 49 43 35 33 31 30 18 21 16 10 10 355 351 3 360 356 334 331 333 320 279 250 253 268 265 268 274 274 266 257 262 256 244
77 78 69 63 60 53 45 36 38 31 20 23 28 26 17 11 3 0 5 9 352 341 337 331 337 341 337 303 250 269 282 280 284 281 267 268 270 261
82 86 80 69 63 62 55 49 46 35 29 30 32 27 20 16 14 8 3 2 356 346 339 347 5 5 339 318 306 274 288 290 290 284 269 262 270 271
87 92 90 81 74 71 67 54 46 42 38 30 26 23 17 12 8 3 359 357 348 342 340 351 359 343 300 289 291 290 269 278 294 292 289 283 275 277
105 96 89 87 82 75 69 63 58 52 42 32 27 21 15 11 2 354 347 348 350 343 337 327 311 309 296 303 303 303 300 277 279 284 291 295 295 293
119 114 97 85 78 69 59 53 52 49 40 34 23 18 14 12 2 355 350 345 339 331 324 316 321 328 326 312 301 300 303 304 289 283 276 265 273 282
123 116 109 96 83 72 60 52 50 46 42 35 24 14 10 4 355 349 342 340 337 335 333 328 327 323 313 304 300 300 306 308 309 310 296 285 278 276